www.pogodaiklimat.ru

Погода и климат >> Архив погоды >> Казахстан >> Баршатас


АРХИВ ПОГОДЫ в Баршатасе

Время (UTC), дата Ветер
(напр.,м/с)
 
Видим.   Явления Облачность Т
(С)
Тd
(С)
f
(%)
Тe
(С)
Тes
(С)
Комфортность P
(гПа)
Po
(гПа)
Тmin
(С)
Tmax
(С)
R
(мм)
R24
(мм)
S
(см)
00 14.06 ЮВ 5 20 км 10/10 600 м
[Cb calv]
+13.6 +13.0 96 +12 +12 1009.5 936.0
03 14.06 Ю 5 20 км 4/3 1000 м
[Sc Ci fib]
+17.7 +13.4 76 +17 +20 1007.2 934.6
06 14.06 Ю 6 20 км 4/3 600 м
[Cb calv Ci fib]
+24.4 +13.9 52 +27 +31 жарко 1003.8 933.3 +13.6
09 14.06 СВ 5
{16}
20 км гроза без осадков {ливн. осадки} [макс. диам. градин 19 мм] 9/9 600 м
[Cb cap]
+16.8 +13.7 82 +16 +17 1007.3 934.7
12 14.06 ЮВ 5 20 км {гроза, ливн. осадки} 4/3 600 м
[Cb calv Ci fib]
+23.2 +13.1 53 +26 +28 жарко 1001.7 930.8
15 14.06 З 3 4000 м гроза, ливневой дождь 10/10 600 м
[Cb cap]
+18.9 +14.4 75 +20 +20 1005.4 933.3 +26.2
18 14.06 СЗ 4 н/о {гроза, ливн. осадки} 10/10 600 м
[Cb calv]
+16.6 +13.1 80 +16 +16 1005.7 933.0 +26.2 16
21 14.06 В 2 н/о в посл. час ливневой дождь 10/10 600 м
[Cb calv]
+15.6 +13.3 86 +15 +15 1004.7 932.0
00 15.06 ЮВ 3 20 км {ливн. осадки} 8/6 600 м
[Cb calv Ac trans Ci fib]
+14.4 +13.5 94 +13 +14 1004.7 931.5
03 15.06 Ю 3 20 км 9/5 600 м
[Cb calv Ac trans Ci fib]
+18.7 +12.1 65 +20 +22 1003.8 931.7
06 15.06 Ю 4 20 км 9/8 600 м
[Cb calv Ci fib]
+20.3 +14.9 71 +23 +25 комфорт 1002.8 931.2 +14.4 5
09 15.06 ЮВ 6 20 км гроза без осадков 9/9 600 м
[Cb cap]
+21.6 +14.0 62 +24 +25 комфорт 1000.2 929.3
12 15.06 З 2 20 км {гроза, ливн. осадки} 8/4 600 м
[Cb calv Ac trans Ci fib]
+19.9 +13.1 65 +22 +24 комфорт 1001.2 929.6
15 15.06 ЮВ 3 20 км 6/4 600 м
[Cb calv Ci fib]
+17.8 +13.3 75 +18 +18 1001.9 929.7 +22.0
18 15.06 Ю 7 н/о 3/3 600 м
[Cb calv]
+16.8 +13.7 82 +16 +16 1002.0 929.6 +22.0 2
21 15.06 З 7 н/о 9 баллов +15.0 +8.5 65 +13 +13 1004.9 932.0
00 16.06 З 4 20 км 9/9 600 м
[Cb calv]
+11.8 +8.3 79 +10 +10 1007.2 933.3
03 16.06 З 5 20 км 9/5 600 м
[Cb calv Ac trans Ci fib]
+13.6 +2.7 48 +12 +13 1008.4 934.5
06 16.06 ЮЗ 7 20 км 9/8 600 м
[Cb calv Ac trans]
+15.8 +2.9 42 +14 +15 1009.2 936.0 +11.6
09 16.06 ЮЗ 8 20 км 8/6 600 м
[Cb calv Ac trans Ci fib]
+18.0 +3.5 38 +17 +18 1008.6 936.0
12 16.06 З 6 20 км {ливн. осадки} 8/8 600 м
[Cb calv]
+17.0 +1.2 34 +16 +16 1010.4 937.2
15 16.06 СВ 6 20 км 1/1 600 м
[Cb calv]
+12.6 +7.4 71 +10 +10 1014.0 939.5 +19.0
18 16.06 В 5 н/о 6/1 1000 м
[Sc Ci fib]
+9.6 +6.3 80 +6 +6 1015.4 940.1 +19.0 0.0
21 16.06 В 3 н/о 9/4 600 м
[Cb calv Ci fib]
+9.3 +6.2 81 +7 +7 1015.2 940.0
00 17.06 З 2 20 км 9/4 600 м
[Cb calv Ac trans]
+9.2 +5.0 75 +8 +8 1015.2 940.0
03 17.06 ЮВ 4 20 км 3/0
[Ci fib]
+16.0 +7.0 55 +15 +20 1013.3 940.0
06 17.06 ЮВ 3 20 км 8/6 1000 м
[Cu hum Ci fib]
+20.5 +6.4 40 +22 +26 комфорт 1010.8 938.7 +9.2
09 17.06 ЮВ 4 20 км 9/8 600 м
[Cb calv Ci fib]
+21.4 +4.5 33 +22 +23 комфорт 1009.1 937.3
12 17.06 Ю 5 20 км 8/5 600 м
[Cb calv Ac trans Ci fib]
+22.0 +5.4 34 +22 +23 комфорт 1007.5 936.0
15 17.06 ЮВ 4 20 км 3/3 1000 м
[Sc]
+17.4 +10.0 62 +17 +17 1008.6 936.0 +22.5
18 17.06 ЮВ 5 н/о 4/4 1000 м
[Sc]
+15.6 +9.5 67 +14 +14 1007.7 934.7 +22.5
21 17.06 В 4 н/о 3/1 1000 м
[Sc Ac trans Ci fib]
+13.6 +9.4 76 +12 +12 1006.7 933.3
00 18.06 ЮВ 2 20 км 9/3 1000 м
[Sc Ac trans Ci fib]
+13.6 +10.6 82 +13 +13 1006.7 933.3
03 18.06 ЮВ 3 20 км 9/8 600 м
[Cb calv Ac trans Ci fib]
+17.2 +11.5 69 +17 +18 1004.8 932.2
06 18.06 СВ 1 20 км 10/10 600 м
[Cb calv]
+18.2 +11.5 65 +20 +20 1007.0 934.7 +13.1
09 18.06 Ю 6 20 км {ливн. осадки} 9/9 600 м
[Cb calv]
+20.3 +10.1 52 +22 +22 комфорт 1003.5 932.0
12 18.06 С 7
{19}
20 км {ливн. осадки} 6/4 1000 м
[Sc Ac trans Ci fib]
+20.4 +10.6 53 +22 +22 комфорт 1003.0 931.3
15 18.06 С 4 20 км 3/3 1000 м
[Sc]
+15.7 +9.8 68 +15 +15 1007.4 934.2 +25.6
18 18.06 С 2 н/о ясно +11.4 +9.1 86 +10 +10 1011.6 937.3 +25.6 0.0
21 18.06 С 2 н/о ясно +9.4 +8.2 92 +8 +8 1012.2 937.3
00 19.06 СВ 2 20 км ясно +9.2 +8.0 92 +7 +8 1013.7 938.7
03 19.06 ЮЗ 1 20 км 6/3 600 м
[Cb calv Ci fib]
+16.5 +6.9 53 +17 +22 1013.2 940.0
06 19.06 СЗ 2 20 км 1/0
[Ac trans]
+19.6 +6.3 42 +21 +37 комфорт 1011.0 938.7 +8.2
09 19.06 С 1 20 км 2 балла +21.5 +4.5 33 +22 +35 комфорт 1010.6 938.7
12 19.06 С 1 20 км 4/3 600 м
[Cb calv Ci fib]
+22.7 +4.2 30 +23 +25 комфорт 1010.3 938.7
15 19.06 В 2 20 км 1/1 1000 м
[Sc]
+20.1 +6.4 41 +22 +22 комфорт 1012.3 940.0 +23.5
18 19.06 С 1 н/о 1/1 1000 м
[Sc]
+14.8 +6.9 59 +15 +15 1013.7 940.0 +23.5
21 19.06 С 2 н/о 3/0
[Ci fib]
+10.6 +8.0 84 +9 +9 1014.8 940.0
00 20.06 СВ 2 20 км 3/1 1000 м
[Sc Ci fib]
+10.0 +6.9 81 +9 +9 1016.4 941.3
03 20.06 СЗ 1 20 км 1/0
[Ac trans]
+19.4 +8.6 50 +21 +31 комфорт 1013.0 940.3
06 20.06 З 2 20 км 6/6 1000 м
[Sc]
+23.8 +3.1 26 +23 +30 комфорт 1012.8 941.3 +9.2
09 20.06 СЗ 2 20 км 7 баллов +25.0 +5.2 28 +25 +29 комфорт 1012.5 941.3
12 20.06 Ю 1 20 км 6/5 1000 м
[Sc Ci fib]
+25.8 +4.8 26 +25 +27 комфорт 1010.9 940.0
15 20.06 В 2 20 км 7 баллов +21.2 +5.9 37 +22 +22 комфорт 1013.4 941.3 +26.5
18 20.06 В 5 н/о 6/4 1000 м
[Sc Ci fib]
+18.3 +8.3 52 +18 +18 1014.1 941.3 +26.5

 

Местоположение метеостанции Баршатас (Восточно-Казахстанская область, Казахстан): широта 48.17 долгота 78.67 высота над уровнем моря 643 м.

В архиве по умолчанию представлена погода в Баршатасе за последнюю неделю. Архивные данные за месяц целиком и за предыдущие месяцы, начиная с января 2011 года, Вы можете получить, выбрав интересующий диапазон дат из раскрывающегося списка и нажав кнопку "Ввод!".


*Определитесь, кто Вы:
робот инопланетянин человек

Внимание! Время в таблицах - всемирное. Для получения местного времени необходимо прибавить поправку, которая равна 5 ч.

Смотрите также архив погоды в соседних городах и на ближайших метеорологических станциях:

Погода в Карауле (Восточно-Казахстанская область, Казахстан) (104 км)
Погода в Аягозе (Восточно-Казахстанская область, Казахстан) (134 км)
Погода в Кайнаре (Восточно-Казахстанская область, Казахстан) (149 км)
Погода в Саяке (Карагандинская область, Казахстан) (156 км)
Погода в Актогае (Восточно-Казахстанская область, Казахстан) (181 км)
Погода в Каракуме (Алматинская область, Казахстан) (214 км)
Погода в Жангизтобе (Восточно-Казахстанская область, Казахстан) (221 км)
Погода на Острове Алгазы (Алматинская область, Казахстан) (226 км)
Погода в Шаре (Восточно-Казахстанская область, Казахстан) (234 км)
Погода в Егиндыбулаке (Карагандинская область, Казахстан) (245 км)

Пояснения к столбцам:

Ветер - указаны скорость ветра в м/с - средняя за 10 мин, порывы в срок и между сроками (в фигурных скобках) и направление, откуда дует ветер: С - северный, СВ - северо-восточный, В - восточный, ЮВ - юго-восточный, Ю - южный, ЮЗ - юго-западный, З - западный, СЗ - северо-западный.
Видимость - горизонтальная дальность видимости в метрах или километрах. При видимости от 1 до 10 км при отсутствии осадков обычно наблюдается дымка, при ухудшении видимости до 1 км и менее - туман. В сухую погоду видимость может ухудшаться дымом, пылью или мглою.
Явления - указаны атмосферные явления, наблюдавшиеся в срок или в последний час перед сроком; фигурными скобками обозначены явления, наблюдавшиеся между сроками (за 1-3 часа до срока); квадратными скобками обозначены град или гололедные отложения с указанием их диаметра в мм.
Облачность - указаны через наклонную черту общая и нижняя облачность в баллах и высота нижней границы облаков в метрах; квадратными скобками обозначены формы облаков: Ci - перистые, Cs - перисто-слоистые, Cc - перисто-кучевые, Ac - высококучевые, As - высокослоистые, Sc - слоисто-кучевые, Ns - слоисто-дождевые, Cu - кучевые, Cb - кучево-дождевые. Подробнее классификацию облаков см. в Атласе облаков (PDF).
T - Температура воздуха - температура, измеренная на высоте 2 м над землей.
Td - Температура точки росы - температура, при понижении до которой содержащийся в воздухе водяной пар достигнет насыщения.
f - Относительная влажность воздуха - влажноcть воздуха, измеренная на высоте 2 м над землей.
Te - Эффективная температура - температура, которую ощущает одетый по сезону человек в тени. Характеристика душности погоды. При расчете учитывается влияние влажности воздуха и скорости ветра на теплоощущения человека.
Tes - Эффективная температура на солнце - температура, которую ощущает человек, с поправкой на солнечный нагрев. Характеристика знойности погоды. Зависит от высоты солнца над горизонтом, облачности и скорости ветра. Ночью, в пасмурную погоду, а также при ветре 12 м/с и более поправка равна нулю.
P - Атмосферное давление - приведенное к уровню моря атмосферное давление.
Po - Атмосферное давление - измеренное на уровне метеостанции атмосферное давление.
Tmin - Минимальная температура - минимум температуры воздуха на высоте 2 м над землей.
Tmax - Максимальная температура - максимум температуры воздуха на высоте 2 м над землей.
R - Количество осадков - Количество выпавших осадков за период времени, мм. При наведении курсора мыши на число - период времени, за который выпало указанное количество осадков.
R24 - Количество осадков - Количество выпавших осадков за 24 часа, мм.
S - Снежный покров - Высота снежного покрова, см. При наведении курсора мыши на число - состояние снежного покрова и степень покрытия местности в баллах.